Theta_e
331 330 331 331 331 331 330 329 329 330 329 330 330 331 333 335 336 336 333 332 332 332 332 331 329 329 330 330 329 328 328 327 328 328 328 328 328 327 326 326 327 328 328 329 329 330 330 330 330 330 330 331 331 331 331 331 331 332 330 330 330 329 328 328 328 328 329 329 328 328 327 327 326 327 327 325 324 326 327 328 328 328 328 329 329
331 330 329 330 331 330 329 329 330 330 329 330 330 331 332 332 333 332 330 330 330 330 329 327 325 326 328 329 328 328 327 326 327 327 327 327 326 324 323 325 325 325 326 328 328 328 328 328 329 330 330 331 330 331 331 330 331 331 330 330 329 329 329 329 329 329 329 329 328 329 328 327 326 327 328 326 324 325 325 326 326 327 328 328 329
333 332 329 329 330 330 330 330 330 329 330 330 329 329 329 329 329 328 328 329 328 327 326 324 324 325 327 328 328 327 327 326 326 326 325 324 324 322 321 322 323 323 325 326 327 327 327 327 327 329 330 330 330 330 330 330 331 331 330 330 330 329 329 329 329 329 329 328 328 329 329 329 329 328 327 326 325 325 324 324 323 323 326 327 327
334 333 330 328 328 330 331 331 330 330 330 330 329 328 328 327 327 327 327 326 326 325 324 324 324 325 326 326 326 326 324 323 323 323 323 323 322 322 320 320 321 322 323 323 325 325 327 327 327 328 328 329 329 330 330 330 330 330 330 330 330 329 329 329 329 328 329 328 328 327 326 329 331 328 327 328 326 324 324 324 323 324 325 325 326
333 333 332 329 327 329 331 331 330 330 330 330 329 328 327 327 327 327 326 325 324 324 323 324 323 323 324 325 325 323 322 321 321 322 322 322 322 321 321 320 320 321 322 322 322 324 326 326 327 327 328 329 329 329 329 329 329 329 329 330 329 329 329 328 328 328 328 328 328 328 328 331 332 327 326 329 328 327 327 326 326 326 325 324 325
331 331 331 328 327 329 331 332 331 330 331 330 329 328 327 327 326 325 325 324 322 321 322 322 323 323 324 324 323 322 321 320 320 321 321 321 321 321 320 320 320 321 321 322 322 323 325 325 325 326 327 328 328 327 327 327 328 329 329 329 328 328 328 327 327 327 327 327 327 328 328 329 329 326 327 328 327 328 330 330 329 328 326 324 323
331 330 330 328 327 329 330 331 331 330 331 330 329 328 328 327 326 326 324 323 322 320 321 322 323 323 323 323 323 321 319 318 319 320 321 321 321 321 320 320 320 320 320 321 321 323 325 324 324 325 326 326 325 325 325 326 326 327 328 328 328 328 328 327 327 326 326 326 327 327 327 327 327 327 328 328 328 328 328 328 326 326 328 326 324
331 332 331 329 328 329 330 331 331 331 331 332 331 329 328 326 325 326 324 321 322 321 321 322 323 323 323 322 322 320 316 315 318 320 321 321 321 321 321 320 319 319 320 320 320 323 324 323 323 324 325 325 325 324 324 324 325 325 326 327 328 328 327 328 327 326 326 325 326 327 326 327 326 326 326 326 328 329 327 325 320 319 322 321 323
331 331 331 329 328 329 330 332 332 331 332 332 332 331 328 327 326 326 324 321 321 322 322 323 322 323 322 321 320 318 316 315 318 321 321 321 320 320 320 319 319 319 319 320 321 322 323 322 322 323 324 324 324 323 322 322 323 324 325 326 327 327 326 327 326 326 326 326 326 326 326 327 325 323 324 323 326 328 329 327 320 314 315 316 320
331 331 329 327 328 330 330 331 332 331 332 332 331 331 330 328 326 325 324 323 323 324 324 322 322 322 321 320 319 318 318 319 319 319 320 319 319 319 319 319 319 318 317 318 320 320 319 318 318 320 321 322 322 322 321 320 321 322 324 324 324 323 322 323 323 323 324 325 326 326 326 326 322 318 319 320 321 322 324 323 317 314 316 315 316
331 331 328 325 327 330 330 330 332 331 332 332 331 331 331 329 327 326 325 325 325 325 324 322 322 322 321 320 319 318 320 320 318 318 319 319 320 320 319 318 318 318 317 316 317 316 315 314 312 313 317 319 320 320 319 319 319 319 321 321 319 318 317 318 318 319 321 323 325 325 324 321 317 315 315 316 317 317 320 318 313 313 315 313 313
331 332 330 327 328 329 329 330 331 332 332 332 332 331 330 329 327 326 325 325 325 324 323 322 321 321 321 320 318 318 320 318 317 319 320 320 320 319 319 317 316 316 316 316 315 315 315 313 310 309 311 313 315 316 316 316 317 318 319 318 316 316 316 317 317 317 318 319 319 319 317 315 314 314 314 314 314 314 315 315 312 313 315 313 312
330 331 331 332 331 328 328 329 329 331 332 332 332 331 328 328 327 326 326 326 324 323 321 321 321 321 320 318 318 319 319 317 317 318 319 320 319 318 317 316 315 314 315 316 316 316 315 313 309 309 309 310 309 310 311 312 314 316 317 316 315 315 315 315 316 315 315 315 314 313 313 313 313 313 313 313 313 312 312 312 312 313 314 313 313
331 330 331 332 330 325 326 329 328 329 331 332 331 329 328 328 327 325 326 327 325 322 321 321 321 320 319 317 318 319 319 317 316 317 319 320 318 316 316 315 315 313 313 315 315 315 314 311 309 310 311 310 308 306 307 308 308 310 314 316 316 314 314 314 314 313 313 312 312 312 312 311 310 311 311 312 312 312 311 311 311 312 312 312 312
331 331 332 330 325 324 325 327 328 328 330 330 330 329 328 328 328 325 325 328 326 321 320 320 319 319 317 317 319 319 318 317 316 316 319 320 317 315 315 314 313 313 312 314 314 314 313 310 309 310 311 310 308 305 305 305 304 304 308 312 314 314 313 313 312 312 311 311 311 311 310 308 309 310 311 311 312 311 311 311 310 312 313 311 310
329 332 334 328 322 323 324 325 327 328 328 329 329 329 328 327 327 326 325 326 325 322 320 319 318 317 317 318 320 319 319 317 315 316 318 319 316 314 314 314 312 312 312 313 314 313 310 309 309 309 309 310 309 307 305 304 304 304 304 306 309 313 313 313 312 311 310 308 308 309 308 308 309 310 310 310 310 310 310 310 310 311 313 315 316
327 329 331 327 321 322 324 324 325 327 327 328 328 328 329 327 326 324 323 324 323 321 320 318 317 317 318 319 320 320 319 317 315 315 317 319 317 315 314 313 312 311 312 313 313 312 311 309 309 308 308 309 309 309 307 305 305 305 304 303 306 309 312 312 312 311 309 307 306 307 307 308 309 310 309 309 309 309 309 309 310 309 311 315 319
325 325 326 323 319 321 324 324 325 326 326 328 327 327 328 327 324 322 321 322 322 320 321 321 318 317 319 321 320 320 320 318 316 314 316 318 318 316 316 313 311 311 312 313 313 312 311 311 310 309 310 310 310 310 308 306 305 305 305 305 305 306 309 311 311 311 310 308 307 308 309 309 309 309 309 309 310 309 309 309 310 310 310 311 313
326 326 325 323 318 319 323 324 324 325 325 327 326 326 327 325 323 321 317 318 320 321 322 322 319 317 319 322 320 320 320 319 318 315 315 317 317 317 317 315 313 311 311 312 313 312 310 310 311 311 311 312 312 311 310 308 307 306 305 304 305 305 305 307 309 310 309 307 306 308 309 310 310 309 309 309 309 309 309 310 310 310 310 309 308
327 326 326 324 318 318 322 324 325 325 324 326 326 326 327 325 324 321 318 318 321 322 321 321 318 315 318 320 320 320 320 319 318 317 315 316 317 318 318 317 316 313 312 312 313 313 311 309 309 309 311 312 312 312 311 310 310 309 307 305 305 306 305 305 306 308 309 307 306 307 307 307 308 308 308 309 308 308 309 309 309 308 308 307 307
326 325 326 323 317 317 320 323 325 326 325 325 325 326 325 325 325 323 322 322 323 323 322 321 318 316 317 320 321 320 320 319 319 318 317 317 318 319 319 319 318 316 315 313 312 313 312 310 309 308 309 309 310 310 311 311 311 311 311 309 307 307 307 307 306 307 308 308 308 308 307 306 305 306 307 308 308 308 308 308 307 307 307 306 306
324 324 324 320 317 317 319 321 323 325 326 326 325 325 324 324 325 324 324 324 324 323 323 321 320 318 317 320 321 320 320 319 319 318 318 318 319 320 319 319 319 318 317 316 314 314 314 313 311 310 310 309 309 310 311 312 311 312 312 312 311 310 310 310 309 308 308 308 309 308 308 308 307 305 304 306 307 307 308 307 307 306 306 305 305
322 323 321 317 316 317 318 320 321 322 324 325 325 326 325 324 324 323 324 324 325 324 322 321 319 318 318 320 321 320 320 319 319 319 318 317 319 320 320 320 320 319 318 318 316 316 315 315 315 314 314 313 312 311 312 312 312 311 312 312 312 311 310 311 312 310 309 308 308 308 307 308 308 307 305 304 306 307 307 307 307 306 305 304 303
321 322 319 315 315 316 317 319 321 322 323 324 324 324 325 325 324 323 323 323 324 323 322 320 319 318 320 321 320 320 320 320 319 319 319 318 319 320 320 319 319 318 318 317 317 317 317 317 317 317 318 317 316 314 313 313 313 312 312 312 312 312 311 311 311 312 311 310 309 308 307 307 307 307 306 305 305 307 307 307 307 305 301 300 300
322 322 320 318 316 315 315 317 319 322 323 324 324 324 323 324 324 324 323 322 323 322 321 321 320 321 321 321 321 320 320 320 320 320 320 319 319 319 320 320 319 319 318 317 316 317 317 318 318 318 319 318 318 317 316 315 314 314 313 313 312 313 312 312 311 312 312 312 311 310 309 308 307 307 307 306 305 305 306 306 306 303 299 297 296
322 322 321 319 316 313 313 315 317 320 322 323 324 324 323 323 324 324 322 321 322 321 321 321 321 321 321 321 321 320 320 321 320 320 319 318 319 319 320 320 319 320 319 318 318 317 317 317 319 319 319 319 319 318 317 317 316 316 315 314 314 314 313 313 312 312 312 312 312 311 310 309 309 308 307 307 306 305 305 305 304 301 298 296 295
321 321 320 319 318 313 311 313 316 317 320 321 322 323 324 323 323 323 321 320 321 321 320 320 321 321 321 321 321 320 320 321 321 321 320 319 319 320 320 320 319 319 319 319 319 318 316 317 318 319 319 319 319 319 318 318 318 317 317 316 316 315 314 314 313 313 313 312 311 311 311 310 310 309 308 307 307 306 305 304 303 301 299 298 296
320 320 319 318 319 315 310 311 314 315 317 320 321 322 323 323 323 323 321 320 320 320 320 320 320 321 321 321 320 320 320 320 321 321 321 320 319 320 320 320 320 319 320 320 319 319 318 317 318 319 319 319 319 319 319 319 319 318 318 318 317 317 316 315 314 314 313 313 312 311 311 310 310 310 309 307 307 306 305 304 303 301 299 298 296
317 318 317 316 317 314 310 310 312 314 316 318 320 322 322 323 323 323 322 321 320 320 320 320 320 320 320 320 319 319 320 320 320 320 320 320 320 320 319 320 320 320 320 319 319 319 318 317 318 320 320 320 320 319 319 318 318 318 318 318 318 318 317 316 315 314 314 314 312 312 311 311 310 310 309 308 307 306 305 304 303 301 300 298 297
316 315 314 314 313 309 307 309 310 312 314 316 318 320 321 322 322 322 322 322 321 321 320 320 320 319 319 319 318 318 319 319 320 319 319 319 318 318 319 319 319 319 319 318 317 317 318 318 319 320 320 320 319 319 319 318 317 317 317 318 318 318 318 317 316 315 315 314 313 312 312 311 310 310 309 308 307 306 304 303 303 302 300 299 298
318 316 313 313 311 306 304 306 308 309 311 313 315 316 317 317 318 319 320 321 321 321 321 321 320 320 320 319 319 319 319 320 320 320 320 319 319 320 320 320 321 320 320 319 318 319 320 320 320 320 320 320 320 320 320 320 319 319 318 318 318 318 317 317 316 315 315 315 314 313 312 311 310 309 308 307 306 305 304 303 303 302 301 299 299
315 314 312 312 311 306 303 304 306 307 308 309 311 312 312 312 313 313 314 315 316 316 317 317 317 318 319 318 318 319 320 321 321 320 319 318 318 319 318 318 318 318 318 318 318 319 319 319 319 319 319 320 320 320 320 320 320 319 319 319 318 318 318 317 317 317 316 316 315 314 312 311 310 308 308 306 305 305 304 304 304 302 300 299 299
311 311 311 310 309 307 305 304 305 305 307 307 308 309 310 310 310 310 309 310 310 309 310 311 311 312 313 312 312 313 315 316 316 315 314 313 313 314 313 312 312 312 312 313 315 316 316 317 318 318 319 320 320 320 320 320 320 320 319 319 319 318 318 318 318 317 317 317 316 313 311 310 309 308 307 306 305 305 304 304 303 302 300 300 300
310 310 309 307 306 307 307 306 304 304 305 305 305 306 307 308 308 307 307 307 307 307 308 308 307 307 308 307 307 308 309 310 310 309 309 310 310 310 309 308 308 308 308 309 310 312 313 314 315 315 316 319 319 320 319 319 319 319 319 318 318 318 318 318 318 318 317 317 315 313 311 309 308 306 306 307 306 305 304 304 303 302 301 300 300
311 311 309 307 307 306 306 306 305 304 305 305 304 304 305 306 306 306 306 306 307 307 307 307 307 307 307 306 306 306 307 307 307 308 308 308 307 307 307 307 307 307 307 307 307 308 309 311 312 313 314 315 317 318 318 317 316 316 316 316 317 317 317 317 317 318 317 316 314 312 310 309 308 307 307 307 306 305 304 304 302 301 300 300 300
308 308 306 305 307 307 305 305 305 305 305 305 305 304 304 305 306 306 306 307 306 306 306 307 307 307 307 307 306 306 307 307 307 307 307 306 306 306 306 306 306 306 305 305 306 307 307 307 309 311 312 313 314 316 316 316 315 314 314 315 315 315 315 315 316 315 315 313 312 310 309 308 307 306 306 306 305 304 303 302 301 301 300 300 300
302 302 301 301 303 305 306 306 305 305 305 305 304 304 304 304 304 305 305 305 305 306 306 306 306 307 306 307 307 306 307 307 307 307 307 306 306 306 306 306 305 305 304 304 304 305 305 306 307 308 310 311 313 315 316 316 315 315 314 314 314 314 314 313 312 311 310 309 308 308 307 307 306 306 305 304 303 303 302 301 301 301 300 300 300
298 299 299 299 299 301 303 304 302 302 304 303 303 303 304 303 304 305 304 304 304 305 305 305 305 306 306 306 306 306 306 307 307 307 307 307 307 306 305 305 304 304 304 304 303 303 303 303 304 305 307 309 312 315 316 316 315 314 314 313 313 313 312 312 310 308 307 307 307 306 306 306 306 305 304 303 302 301 301 301 300 300 300 299 298
298 298 298 299 299 299 299 300 300 300 301 301 301 302 303 303 304 305 305 305 305 305 306 305 305 305 305 305 305 305 306 306 307 307 307 307 307 306 306 306 306 306 306 305 304 303 303 303 303 303 305 307 310 314 316 316 315 314 313 313 313 312 310 309 308 307 306 305 305 305 304 304 304 303 302 301 301 300 300 300 299 299 298 298 297
298 299 299 299 299 299 299 299 299 299 299 299 299 300 301 302 303 304 305 306 306 306 306 305 305 305 305 305 305 305 305 306 306 307 307 307 307 306 306 306 306 306 306 306 306 305 305 305 304 304 305 308 310 313 315 314 313 312 312 312 312 310 309 307 306 305 304 303 303 302 302 301 302 301 301 301 300 300 299 298 298 297 296 296 295
298 299 299 299 299 299 299 299 299 299 299 299 299 299 299 300 301 302 303 304 304 305 305 304 305 304 304 304 304 305 305 305 305 305 305 305 305 305 305 306 307 307 307 307 307 306 306 305 305 305 308 309 310 312 313 312 311 310 310 310 310 309 308 306 304 304 303 302 302 301 300 299 299 299 299 298 297 297 296 296 296 295 294 294 293
298 298 299 299 299 299 299 299 299 299 299 299 299 299 299 299 300 300 301 302 302 303 303 303 304 304 304 304 304 304 305 305 305 305 305 305 305 305 305 306 307 308 308 308 307 307 306 306 306 307 308 309 310 311 310 309 309 308 307 308 308 307 306 305 304 302 301 300 299 299 298 297 296 296 296 296 296 295 295 295 294 294 293 293 293
298 298 298 298 299 298 299 299 299 299 299 299 299 299 299 299 300 300 301 301 301 301 302 302 302 303 303 304 304 305 305 305 305 305 304 305 304 304 304 304 306 308 308 307 307 307 306 306 306 308 309 309 310 309 307 306 306 305 305 305 305 305 304 304 303 301 299 298 297 297 296 296 296 296 295 295 295 294 294 293 293 293 293 293 292
297 298 298 298 298 298 298 298 298 298 299 299 299 299 299 299 299 300 300 300 301 301 301 302 302 303 303 304 304 305 305 304 305 305 304 304 304 304 303 303 304 306 307 307 307 306 306 306 307 308 308 308 307 306 305 304 303 304 304 303 304 303 302 302 301 300 298 297 296 295 295 295 295 295 295 294 294 293 293 293 293 293 292 292 292
296 297 298 298 297 297 297 298 298 298 298 298 299 299 299 299 299 299 300 300 300 301 301 301 302 302 303 303 304 304 304 304 304 304 304 304 304 303 303 303 303 304 306 307 306 306 306 307 307 307 307 306 304 303 302 301 301 301 301 300 301 300 299 299 299 297 295 295 295 295 295 295 294 294 294 293 293 293 293 292 292 292 291 291 290
295 296 296 297 297 297 298 298 298 298 298 299 299 299 299 299 299 299 300 300 300 300 300 301 301 302 302 303 303 304 304 304 304 304 304 303 304 303 303 303 303 304 305 306 306 306 306 306 306 307 306 303 301 300 299 299 298 298 298 297 297 296 296 296 296 295 295 295 295 294 294 294 293 293 293 292 292 292 292 291 291 291 290 290 290
294 294 294 295 295 296 297 298 298 298 298 298 298 299 299 299 299 299 299 300 300 300 300 300 300 301 301 302 302 303 303 303 303 303 303 303 303 303 303 304 304 304 304 305 306 305 305 306 306 305 304 301 299 298 298 297 297 297 296 295 295 295 295 295 295 295 295 295 294 294 293 293 292 292 292 292 291 291 291 290 290 290 290 289 289
292 292 293 293 293 293 294 295 296 297 297 298 298 298 298 298 298 298 298 299 300 300 300 300 300 301 301 301 302 302 302 302 303 303 303 303 303 303 304 304 304 304 304 304 304 304 305 305 305 305 302 299 297 296 297 297 297 296 295 295 295 295 295 295 295 295 294 293 293 292 292 292 292 291 291 291 290 290 290 290 289 289 289 289 289
291 291 291 291 291 292 292 293 294 294 295 296 297 297 297 298 298 298 298 299 299 300 300 300 300 300 301 301 301 301 301 302 302 303 303 303 303 303 304 304 304 304 303 303 304 305 304 304 304 305 303 299 297 297 297 296 296 295 295 295 295 295 295 295 294 293 292 292 292 292 292 291 291 291 290 290 289 289 289 289 289 288 288 288 288
290 290 290 290 290 291 291 292 292 292 293 294 294 295 296 297 297 297 298 298 298 299 299 299 300 300 300 301 301 301 301 301 302 302 302 302 303 303 303 303 303 303 303 304 305 305 304 303 304 305 304 302 301 300 296 295 294 294 294 295 295 295 294 293 292 292 292 292 292 292 291 291 290 290 290 289 289 289 289 288 288 288 288 288 288
289 289 289 289 289 290 290 290 290 291 291 292 292 293 294 295 296 296 296 297 297 298 298 298 299 299 300 300 300 300 300 301 301 301 301 302 303 303 303 304 304 304 305 306 306 305 305 305 305 305 303 303 302 299 295 293 293 294 295 295 294 292 292 292 292 292 292 292 292 291 291 290 290 290 289 289 289 288 288 288 288 288 288 288 287
Wind_Speed
9 12 13 15 13 13 15 16 16 16 17 21 24 25 26 27 27 26 24 23 23 23 22 20 18 17 16 14 13 12 12 10 10 9 7 6 5 6 6 6 6 6 4 3 2 1 2 3 5 7 8 7 5 5 6 8 10 10 10 9 8 8 7 5 3 2 3 4 4 4 5 6 6 5 5 6 5 4 3 3 3 3 3 5 8
6 8 12 17 16 17 19 18 19 20 20 24 27 28 29 29 29 28 26 25 25 24 23 20 18 17 18 17 16 14 13 10 10 9 7 7 6 6 6 6 6 6 6 6 5 5 4 2 2 4 5 5 4 5 6 7 9 10 10 9 8 7 6 5 4 4 3 4 3 2 2 4 5 4 4 7 8 6 5 3 1 1 3 3 3
6 6 10 16 18 21 22 20 22 22 22 25 28 30 30 30 30 29 28 27 25 23 22 20 17 16 16 16 16 14 13 10 9 8 7 7 6 6 5 5 5 6 6 6 7 6 5 4 2 2 2 3 5 6 7 7 7 9 10 9 9 8 6 6 6 6 4 4 3 1 0 0 2 2 2 5 9 9 7 5 2 3 3 4 4
8 6 7 12 15 19 21 22 24 23 22 24 28 30 31 31 30 29 28 26 23 21 19 19 18 17 15 15 15 14 14 13 11 9 7 6 5 5 4 4 4 5 6 5 6 6 5 4 3 2 2 3 4 5 5 6 7 7 8 9 9 8 8 8 8 7 6 4 2 1 1 2 0 1 1 3 6 8 8 6 6 6 6 5 5
10 10 10 11 13 16 21 24 24 23 23 25 29 31 31 31 30 29 29 26 23 21 20 20 20 19 17 16 15 13 14 14 12 10 9 7 6 5 5 5 5 6 6 5 5 6 5 4 3 4 4 5 4 2 3 3 4 5 6 7 8 7 7 8 8 7 6 6 4 3 1 1 1 2 1 2 2 4 4 4 6 7 6 5 5
9 10 10 11 12 15 19 22 23 23 24 27 30 31 32 32 31 30 29 27 24 22 22 21 21 21 20 19 16 15 13 12 11 10 9 9 8 7 7 7 6 7 7 7 7 8 7 6 5 6 8 8 7 5 4 3 3 3 3 5 4 3 5 6 6 6 7 7 5 3 2 2 2 0 1 1 1 2 3 4 5 5 5 5 5
7 7 8 9 12 14 17 22 24 25 26 29 30 31 32 32 31 32 30 28 26 24 23 23 23 23 22 21 19 17 15 12 10 9 9 9 9 9 8 7 6 6 7 8 7 8 9 7 6 8 10 11 10 8 7 6 5 4 4 5 5 4 5 6 7 7 7 8 7 4 3 4 3 1 2 1 1 1 2 3 3 1 2 4 5
7 8 8 9 12 16 19 24 27 28 28 28 29 31 32 32 32 32 30 28 27 25 23 23 24 24 23 21 20 18 15 13 12 11 10 9 9 8 7 7 7 7 7 7 6 7 9 7 7 9 10 10 10 10 9 8 7 6 6 6 5 4 4 5 6 6 5 6 8 7 2 2 2 2 2 2 2 2 0 2 4 5 7 7 4
8 8 9 10 14 19 23 26 27 28 29 29 30 31 30 31 32 31 29 28 27 24 22 23 25 25 23 22 20 17 14 14 14 12 10 9 9 8 8 7 8 8 9 8 8 9 10 9 9 9 9 9 8 8 8 8 7 7 8 7 6 5 3 2 3 3 2 2 6 8 5 2 3 4 3 2 3 2 0 1 4 7 12 16 12
7 6 8 11 16 19 21 23 25 27 30 30 30 29 29 29 30 29 28 26 24 22 21 23 25 25 24 23 20 18 17 16 15 13 11 10 10 9 8 8 8 9 10 11 11 12 11 10 9 8 8 8 7 7 7 7 7 7 8 8 9 9 8 7 5 4 2 2 3 5 4 3 4 4 5 4 4 4 3 1 4 5 8 15 20
7 6 5 8 11 15 19 22 24 26 28 28 29 30 29 26 24 21 20 20 19 19 22 25 27 27 25 24 21 20 20 18 16 16 14 13 11 10 9 8 8 9 10 12 12 11 10 9 8 8 9 8 8 7 6 5 6 7 8 9 10 11 11 10 10 9 7 7 6 4 5 6 5 6 7 7 6 5 3 2 4 5 6 11 18
6 6 5 6 8 12 17 20 22 23 25 26 25 23 18 14 12 12 12 14 16 20 24 27 28 28 26 24 23 22 21 19 19 18 16 14 13 12 10 9 9 10 11 11 11 10 8 7 8 10 10 9 8 7 6 5 6 7 8 9 10 10 10 9 10 11 10 11 10 9 8 8 8 8 7 7 7 6 5 3 3 5 5 7 11
6 6 6 6 7 10 15 18 20 21 23 22 18 15 15 16 16 15 15 18 21 25 28 28 27 27 26 24 23 23 22 19 19 19 17 16 14 13 12 11 10 11 11 12 11 9 7 7 9 11 12 11 10 9 8 7 6 6 7 8 9 8 7 7 8 9 9 9 10 9 9 8 9 8 6 6 6 5 6 5 3 4 4 5 8
5 5 5 6 6 9 14 18 19 20 20 18 15 16 19 22 25 26 25 25 27 28 28 27 26 26 25 24 24 24 23 19 18 17 17 16 14 14 13 12 11 11 12 13 12 10 8 8 10 11 11 12 12 11 9 8 7 7 7 7 7 7 7 8 9 9 8 8 8 8 9 9 9 8 7 8 8 8 9 7 4 4 4 5 6
4 3 1 1 5 9 13 15 17 18 17 15 17 19 22 24 28 33 33 31 31 30 28 26 26 25 24 24 24 24 22 19 17 16 16 16 14 14 14 12 12 11 12 13 12 11 9 9 9 10 11 11 11 11 10 9 9 9 8 8 8 7 7 8 9 9 8 8 7 7 9 10 10 9 9 10 10 10 12 11 7 4 3 4 4
4 4 4 3 2 7 11 13 15 16 15 16 19 21 22 24 28 31 31 29 25 23 24 25 24 24 24 25 25 24 22 18 16 16 16 15 14 14 14 12 11 11 12 13 13 12 11 10 10 9 10 10 10 10 9 9 8 9 9 9 9 7 6 8 8 7 8 8 7 7 9 12 12 11 10 10 11 11 11 12 12 8 4 1 3
2 3 2 2 3 2 9 13 15 16 16 16 18 20 22 24 24 24 23 23 18 13 16 20 22 24 26 26 25 24 22 18 16 17 16 15 14 13 13 12 11 12 12 12 13 13 12 12 10 9 9 9 9 8 7 8 8 9 9 9 10 8 7 8 7 6 7 7 7 8 9 11 11 10 10 10 10 11 11 11 13 12 9 4 2
2 3 3 3 5 4 5 10 14 16 18 18 18 18 19 20 21 25 24 23 21 17 20 23 23 23 26 27 25 25 23 17 14 15 15 15 15 13 13 13 12 13 13 12 12 12 13 13 12 11 10 9 9 8 7 7 7 9 9 9 10 9 8 8 6 6 6 6 7 8 8 9 9 8 9 9 9 9 9 10 11 11 11 8 5
1 3 4 3 6 7 6 7 10 13 15 16 16 16 17 18 20 22 20 21 24 24 26 28 25 21 22 24 24 26 25 18 15 17 17 16 16 15 14 13 13 14 14 13 12 11 12 13 14 13 11 10 10 8 8 8 8 9 9 10 9 8 8 8 7 6 7 7 7 7 6 6 6 6 7 7 7 8 7 8 9 9 9 10 7
4 4 4 4 7 9 8 8 8 11 12 14 15 15 16 17 19 19 17 20 25 26 27 29 27 23 24 26 26 28 26 20 18 19 18 17 17 17 16 16 15 15 15 15 14 12 12 13 14 14 13 12 11 10 9 8 8 8 8 9 9 8 8 8 8 7 7 7 6 6 6 5 4 3 4 6 7 8 7 7 8 8 9 9 8
3 4 4 4 7 10 10 9 9 10 11 12 14 15 15 16 18 19 20 22 25 24 25 29 29 27 27 27 28 29 26 22 20 19 19 18 19 19 19 18 18 17 16 16 16 14 13 12 13 13 14 13 12 11 10 9 8 7 7 7 7 7 7 7 7 7 7 6 5 5 5 5 4 3 2 3 5 6 6 7 7 7 9 9 9
2 4 4 4 6 9 11 11 10 10 10 10 12 14 15 16 17 19 21 22 23 23 24 26 28 26 24 23 25 27 25 22 21 20 19 18 20 22 21 21 22 21 19 18 17 16 14 13 12 12 12 13 13 12 11 11 10 9 8 7 7 7 7 6 6 7 6 5 3 3 4 3 3 3 2 2 3 4 4 5 7 7 8 9 10
2 3 3 4 6 8 10 12 11 10 9 9 10 12 13 15 16 18 19 20 22 22 20 22 25 25 21 19 21 24 23 22 22 22 19 18 21 22 22 22 24 23 23 22 20 18 16 14 13 11 11 12 12 13 13 12 11 10 10 9 8 8 8 7 7 7 7 5 4 3 2 2 1 1 2 2 1 2 3 4 6 7 8 9 9
4 4 3 5 7 8 9 10 10 9 8 7 8 9 11 13 15 17 18 18 19 19 17 18 22 21 17 15 17 20 22 22 23 23 20 18 20 21 21 21 22 23 24 23 21 20 19 17 15 13 12 11 12 13 14 14 13 12 11 10 10 9 9 9 8 8 8 7 6 5 4 3 2 1 1 0 1 1 2 3 5 6 7 9 9
5 5 4 5 6 6 7 8 8 8 7 6 6 6 8 11 13 15 16 16 17 17 16 16 17 17 17 17 18 19 21 22 22 21 18 17 18 19 21 21 22 24 24 21 18 17 18 19 17 15 13 13 13 13 15 15 14 14 13 12 11 11 10 10 11 10 10 9 9 7 6 6 5 4 3 3 2 1 2 3 4 6 7 8 9
6 6 5 5 5 5 6 7 7 7 6 5 5 5 6 8 11 12 12 13 14 15 14 15 15 16 17 19 20 19 19 20 21 21 20 20 19 19 21 23 24 24 23 22 19 20 22 24 21 17 15 14 14 14 16 17 16 15 15 15 14 13 12 12 12 13 13 12 12 11 9 8 8 7 6 5 4 3 2 3 3 4 6 8 8
6 6 6 5 5 5 6 8 8 8 6 5 4 4 4 6 8 9 8 10 12 12 12 14 15 16 16 17 18 18 17 17 18 19 20 20 18 19 21 24 24 23 22 22 22 23 26 27 25 21 19 18 17 17 18 19 18 18 18 18 18 17 16 15 15 14 15 15 14 13 13 12 11 10 8 6 5 4 3 3 3 4 5 7 7
5 6 6 6 6 5 7 10 10 10 9 7 5 4 4 4 6 7 7 7 9 12 13 13 13 15 15 15 17 17 16 16 16 16 16 16 17 20 21 21 20 20 20 18 18 21 23 23 22 22 21 20 19 18 18 18 18 18 19 20 21 21 20 19 18 17 17 17 17 16 15 15 14 13 11 8 7 6 5 4 3 3 5 6 5
3 4 4 4 5 5 8 12 13 14 13 11 9 7 5 4 4 6 7 7 7 10 13 14 14 14 14 14 18 19 16 15 16 16 15 16 18 18 19 19 20 20 19 16 17 21 22 21 20 19 18 17 17 17 18 18 18 19 20 20 21 23 24 23 21 20 20 20 19 18 18 17 16 15 13 10 8 7 6 5 4 3 4 5 4
4 4 4 3 2 2 2 7 11 15 16 15 14 12 9 7 5 5 6 7 7 7 9 11 11 11 10 9 13 15 13 13 15 17 17 19 19 19 19 20 20 20 20 19 22 24 22 20 19 18 17 17 17 18 18 18 18 19 18 18 18 21 23 24 24 23 22 22 22 21 20 19 18 16 14 12 10 8 7 6 5 4 4 4 3
5 6 6 5 5 6 6 5 3 6 11 14 16 15 13 11 9 7 6 6 6 6 7 8 9 8 8 8 9 11 12 13 15 16 17 18 19 18 17 17 16 16 18 21 23 23 19 17 16 16 16 16 15 14 13 14 14 15 16 16 16 17 18 21 23 24 24 25 24 24 23 21 20 18 16 13 10 8 6 5 5 6 5 4 3
6 7 7 7 6 6 8 9 6 2 2 7 11 14 14 13 11 9 8 7 7 6 7 7 8 9 11 12 12 13 14 16 17 16 14 14 14 13 12 12 12 12 13 14 14 14 12 11 10 10 10 9 8 8 8 9 11 12 13 14 15 16 17 18 20 22 24 25 26 26 25 23 21 19 17 13 10 8 6 5 7 7 7 6 5
7 7 7 7 6 8 11 13 13 10 5 1 3 8 11 11 11 10 9 8 8 6 6 7 7 8 10 11 11 12 14 15 15 14 12 11 11 10 8 7 6 5 4 3 3 3 3 3 4 4 5 5 5 5 6 7 7 8 8 10 11 14 16 17 19 21 22 23 25 26 26 24 22 19 16 12 9 7 6 7 8 8 8 6 6
7 7 7 9 10 12 14 16 18 17 13 10 8 5 3 6 8 8 8 7 7 7 7 7 6 5 5 6 6 7 8 9 9 9 9 9 9 8 7 6 5 4 3 3 2 2 1 1 2 3 3 4 5 6 6 5 5 5 5 6 7 9 11 13 15 17 19 21 22 24 26 25 22 18 15 11 9 8 8 8 8 8 7 7 7
6 6 7 8 11 15 17 17 17 16 14 14 15 13 7 3 2 4 4 4 4 4 4 4 4 3 3 4 4 3 4 6 7 8 8 8 8 6 5 4 2 2 2 2 3 3 2 2 2 3 4 5 6 6 6 4 4 5 5 6 7 9 11 11 13 14 16 18 20 22 24 23 21 18 14 11 9 9 9 9 8 8 8 9 9
6 7 8 8 7 7 10 12 12 11 11 15 17 15 11 8 4 2 2 2 2 2 1 2 4 4 4 4 3 3 5 7 7 7 6 6 5 4 3 2 1 1 2 3 3 4 4 4 5 5 5 6 6 7 6 6 6 6 7 7 7 8 9 9 10 11 12 14 16 18 19 20 18 15 12 10 9 9 9 9 9 10 10 10 10
12 14 16 16 12 5 3 4 5 6 7 13 16 15 13 11 8 7 5 3 2 3 3 1 1 3 4 5 5 5 6 7 8 7 6 5 4 3 3 2 1 2 4 5 5 6 7 7 8 8 8 8 8 8 8 8 8 7 7 7 7 6 5 5 5 6 7 9 11 13 15 16 14 12 11 11 10 10 10 11 11 11 11 10 9
17 18 19 21 20 15 8 5 8 9 7 11 13 13 14 14 13 13 13 9 6 5 3 4 4 2 1 2 5 6 7 8 10 9 7 6 5 5 5 4 4 6 7 8 7 8 9 11 11 11 11 11 10 11 11 9 9 9 8 7 6 4 3 4 5 7 8 10 11 12 12 11 11 10 11 11 10 10 11 11 10 10 9 9 9
14 15 16 17 18 18 16 13 14 14 13 13 12 11 14 14 13 14 15 14 12 11 7 5 3 2 3 4 3 4 6 8 10 10 9 8 7 7 6 6 6 7 7 8 7 8 10 13 15 15 14 12 11 12 13 11 9 8 7 5 4 3 5 7 9 10 11 11 11 10 9 9 9 9 9 9 8 8 8 7 7 7 8 9 10
13 13 13 15 16 17 16 16 16 15 16 15 13 10 11 14 14 13 15 16 16 14 11 10 9 7 5 6 5 4 4 5 6 7 7 7 7 6 6 7 7 7 7 7 7 7 8 11 15 16 14 13 12 12 12 11 8 7 6 5 5 6 9 11 12 12 11 10 10 9 8 7 7 7 6 6 5 5 5 5 6 7 8 9 10
11 12 13 14 15 15 14 14 15 15 16 16 14 13 11 10 12 15 17 18 16 16 15 15 14 11 10 9 8 7 6 6 5 5 5 5 4 4 5 7 8 8 8 8 8 7 7 8 11 13 12 11 11 10 10 9 7 6 7 7 8 10 11 12 13 12 11 10 9 8 7 5 4 4 4 3 3 3 4 5 6 7 7 8 9
13 13 13 14 14 14 14 14 15 15 16 16 15 14 13 13 13 14 16 17 16 15 15 15 15 14 13 12 11 11 10 9 8 7 6 4 3 2 2 3 6 9 9 8 8 7 6 6 8 9 10 9 8 7 7 7 6 7 8 9 10 11 11 12 12 12 11 10 9 8 7 6 4 3 2 2 3 4 5 5 5 5 6 7 8
15 15 14 14 13 13 13 13 14 15 15 14 14 14 13 13 13 13 14 16 17 17 16 17 18 18 17 15 14 13 12 11 9 8 7 6 4 3 3 3 4 8 9 8 8 7 6 4 4 6 7 6 6 5 6 6 7 7 9 9 9 9 10 10 10 10 10 9 8 8 6 5 3 2 3 4 5 5 5 4 4 5 6 7 8
16 16 16 14 13 13 13 13 13 13 14 13 13 13 13 12 13 13 13 13 14 14 14 15 17 18 17 16 15 14 13 13 12 11 10 8 7 6 5 5 5 8 10 10 10 8 7 5 3 3 4 5 6 6 6 7 7 8 9 9 9 10 10 9 8 9 9 9 8 6 5 3 3 3 4 4 4 3 3 4 4 5 5 6 8
21 21 20 18 16 15 15 15 14 13 12 12 12 12 13 14 13 13 13 13 13 13 12 13 15 17 18 18 17 16 15 14 13 13 12 11 9 8 8 7 8 9 11 12 12 11 10 8 6 6 6 7 8 8 9 9 9 9 9 10 10 10 9 8 8 9 8 7 6 4 3 1 1 1 1 1 1 1 1 2 2 4 5 7 8
21 21 21 20 19 18 17 17 16 14 12 12 12 12 14 16 16 15 15 14 14 15 15 14 13 13 14 16 17 16 15 14 13 13 12 11 11 10 9 9 9 8 10 12 14 13 12 11 10 9 10 11 11 12 12 12 11 11 10 9 9 9 8 7 7 7 6 5 4 3 2 3 3 3 3 2 2 2 1 2 3 5 7 8 10
18 19 20 20 20 19 19 19 19 18 15 14 14 13 14 15 17 17 17 17 16 16 16 16 16 14 12 12 13 14 14 13 12 13 13 13 12 11 10 10 10 10 10 12 13 14 15 15 14 12 13 14 14 14 15 14 13 11 11 10 8 8 7 6 6 6 5 5 6 6 6 6 5 4 3 2 2 2 3 5 6 8 9 10 11
19 20 21 21 21 21 21 21 22 22 20 19 19 19 17 17 17 17 18 19 18 16 16 16 16 16 15 13 12 12 12 11 11 11 12 12 12 12 12 12 12 11 11 11 14 16 16 16 14 14 15 17 17 17 17 16 15 14 12 11 9 7 6 5 5 6 8 9 9 9 8 7 5 4 3 3 4 5 6 7 8 9 10 11 13
19 20 21 21 21 22 22 23 23 23 22 21 22 21 20 19 17 16 16 17 17 16 15 16 16 17 16 16 14 13 12 11 11 11 11 11 12 12 13 13 12 12 12 15 16 15 13 13 14 16 17 18 19 20 19 16 14 13 11 9 8 7 6 6 6 8 10 12 11 9 7 6 4 4 5 5 6 7 7 8 9 11 13 14 15
20 21 21 21 22 22 22 23 24 24 23 23 23 23 21 18 16 15 15 15 16 16 16 16 15 15 16 16 16 16 15 14 14 13 12 12 13 14 15 15 14 15 16 17 15 12 11 13 17 18 17 15 15 18 19 17 13 12 10 8 8 7 6 7 8 10 11 11 9 7 6 5 5 5 6 6 7 8 9 11 12 13 15 17 18
21 21 21 21 21 22 23 24 25 24 24 25 27 27 26 23 21 19 18 17 18 18 19 19 17 16 14 13 14 17 18 17 16 15 14 14 14 14 15 16 16 17 16 15 14 12 10 12 15 16 16 14 12 15 19 18 14 13 11 8 8 7 7 9 10 10 10 8 6 5 5 4 4 5 6 7 8 9 11 13 15 17 18 18 19
Wind_Direction
190 189 172 169 180 187 184 176 171 176 186 188 182 180 181 182 183 181 181 184 182 176 175 175 175 174 173 166 159 157 157 159 156 151 147 140 125 115 111 102 99 98 100 105 101 105 184 230 247 244 246 249 239 222 229 234 225 215 209 205 209 211 213 220 219 207 197 200 205 208 212 212 210 203 190 187 183 176 166 132 114 143 187 214 226
163 167 162 167 174 177 178 174 171 171 171 172 170 170 172 173 173 170 171 174 173 171 173 176 177 176 175 169 165 165 165 167 163 159 157 151 138 121 116 115 111 107 106 110 110 105 117 150 211 229 240 244 217 205 221 230 228 225 220 212 210 213 216 221 221 211 194 186 186 192 217 217 207 204 211 207 199 191 185 168 127 169 163 157 203
163 162 165 172 173 173 174 173 172 172 169 166 164 164 163 164 165 164 166 169 172 173 174 175 174 174 174 169 166 165 165 167 163 158 155 151 145 131 122 126 121 110 110 116 122 120 119 123 131 172 216 218 206 208 214 220 224 226 227 223 218 215 213 217 222 226 207 162 127 120 190 186 192 188 185 207 209 210 211 193 206 274 220 176 196
168 162 170 180 178 173 172 171 171 172 172 167 162 162 162 164 165 165 167 170 171 173 176 175 172 173 172 165 161 157 154 154 153 149 151 147 137 131 131 147 150 133 124 119 122 128 130 126 123 135 165 186 200 211 214 217 223 227 232 231 227 218 212 215 221 224 211 180 133 102 67 67 107 257 118 166 209 223 232 219 218 252 247 211 206
171 171 178 181 182 178 171 170 171 174 176 171 167 167 167 168 169 168 170 171 171 174 177 175 173 175 171 163 160 156 152 154 154 149 151 148 132 120 117 126 140 139 141 144 136 135 139 142 132 124 136 150 153 165 191 210 218 224 231 229 229 224 215 214 214 217 215 202 174 131 78 92 218 283 70 118 193 199 208 204 201 220 234 225 211
182 178 179 176 177 176 171 169 172 178 180 176 173 174 173 173 172 171 172 171 172 175 179 178 178 178 174 168 168 165 162 168 168 160 155 151 140 130 123 121 124 124 130 141 139 134 137 136 129 124 126 128 123 118 128 143 162 182 201 210 220 228 217 211 208 217 219 210 190 150 124 136 163 268 107 114 158 170 176 181 187 208 225 228 233
183 177 175 171 170 170 171 174 178 183 184 180 178 177 177 176 174 174 173 171 172 176 180 183 181 179 179 177 178 178 176 176 176 169 162 155 146 141 134 126 125 125 124 131 136 134 132 128 129 134 127 119 115 112 108 106 112 130 158 187 210 220 212 206 203 210 215 211 203 179 126 115 113 120 152 137 128 162 170 143 137 183 239 253 269
176 177 174 171 174 175 177 179 183 186 185 183 181 180 179 178 178 177 173 171 174 178 182 186 183 179 180 180 181 185 183 173 168 168 167 165 161 158 153 133 123 123 124 131 142 137 130 124 126 135 132 125 124 120 111 103 103 109 126 154 182 200 213 209 197 197 209 214 204 194 180 133 115 91 115 127 132 146 51 80 84 75 64 40 8
178 182 176 176 182 182 181 181 184 187 186 186 185 183 182 181 181 178 173 172 177 182 185 188 187 183 181 182 181 181 177 165 162 169 175 179 178 174 169 151 129 118 118 129 138 133 129 127 124 129 131 128 130 128 118 109 101 100 107 116 130 135 132 143 153 166 199 224 198 192 190 149 94 77 78 80 94 107 94 3 40 62 56 49 57
180 187 186 186 186 183 181 181 184 188 189 188 188 186 184 184 184 179 174 175 180 186 188 189 188 187 185 184 179 174 169 163 162 169 176 179 177 171 168 161 145 128 121 126 132 131 128 127 126 129 133 131 130 128 119 108 97 95 102 104 104 100 94 95 93 94 110 127 159 177 162 117 82 70 67 62 69 75 85 46 21 41 44 47 58
171 181 186 179 176 177 178 181 186 190 191 189 188 188 185 185 184 174 170 176 183 189 191 191 190 190 190 187 180 173 170 166 164 167 172 175 174 170 168 164 155 147 138 132 132 131 127 121 121 126 131 132 130 126 119 106 94 94 102 105 102 95 89 89 86 82 87 97 102 105 99 91 80 72 63 61 71 72 73 36 16 45 58 52 58
158 170 168 151 156 170 176 183 188 190 192 192 189 182 168 156 145 135 145 170 185 191 192 193 193 193 192 188 181 177 175 171 168 169 174 179 178 175 176 170 159 156 155 149 142 137 131 121 118 117 118 120 120 118 110 103 105 106 107 107 105 101 98 95 90 85 84 88 95 94 91 87 80 74 65 63 72 78 89 84 29 51 69 61 62
157 171 170 161 168 175 179 184 188 190 194 192 179 152 136 136 141 148 162 177 189 194 194 193 193 193 191 187 184 180 178 175 173 175 180 185 186 183 183 181 173 165 163 162 156 152 147 134 125 115 108 106 104 103 98 96 109 120 119 113 107 104 105 106 100 94 87 87 93 95 91 85 77 69 61 61 63 68 76 73 59 68 80 78 66
146 164 174 184 189 185 185 187 189 193 193 183 158 145 152 161 169 175 180 187 193 194 192 191 192 192 192 191 188 184 180 179 179 180 184 190 194 194 193 192 190 180 170 167 164 164 161 147 133 121 111 106 100 98 98 96 102 115 127 125 114 109 108 107 105 100 94 91 93 95 87 78 72 67 63 62 61 62 57 46 57 82 72 74 72
80 89 93 241 215 199 194 191 193 194 188 169 154 159 165 168 177 182 184 190 194 192 189 189 192 192 192 193 191 187 185 181 182 186 188 194 201 202 202 204 204 193 179 172 170 173 171 157 145 130 122 116 107 104 104 105 104 106 117 125 121 119 113 107 105 100 95 90 88 88 83 79 78 78 77 71 65 64 58 47 51 83 68 38 46
58 68 44 354 274 212 203 196 195 195 185 165 160 170 172 173 184 185 182 188 192 190 187 188 192 192 192 194 192 191 189 183 185 191 193 199 207 210 211 213 211 200 187 179 177 180 178 167 159 146 136 129 120 115 113 114 114 110 113 117 122 130 126 115 111 103 92 86 85 88 88 87 86 85 84 78 69 65 64 55 50 61 85 46 11
11 85 88 36 38 199 207 200 195 194 190 174 167 177 178 179 183 171 169 187 192 189 186 183 188 192 193 194 192 195 195 187 189 195 197 205 211 214 217 218 215 205 195 189 186 187 186 179 173 163 154 146 136 131 129 126 123 122 121 117 122 134 136 127 120 110 95 83 85 94 95 91 89 87 81 76 70 64 64 62 54 51 61 88 75
291 66 74 56 57 75 178 195 195 195 195 185 174 181 183 180 171 151 156 186 195 195 197 192 192 193 193 193 194 202 200 187 193 203 202 210 215 216 219 218 213 207 203 199 195 195 193 190 188 181 173 167 160 154 152 151 144 138 135 127 126 136 142 139 134 121 104 87 84 91 91 88 87 85 77 70 67 63 59 57 54 50 54 67 89
150 77 65 56 56 63 105 162 185 191 195 187 175 181 186 182 173 163 168 189 195 199 201 197 195 191 194 198 201 207 203 187 193 207 207 210 214 216 218 217 211 208 208 206 203 203 200 196 195 193 187 183 182 179 174 170 165 159 152 144 140 144 148 148 149 143 126 113 100 91 84 81 80 74 67 60 57 57 53 52 52 54 58 58 63
136 108 88 78 71 71 93 131 165 180 188 185 174 179 188 188 189 190 188 185 189 199 200 195 190 188 197 206 207 209 205 192 192 203 207 210 214 217 219 220 216 211 210 208 206 206 203 197 197 198 197 195 194 194 192 188 181 175 170 163 157 157 158 154 157 159 149 140 125 105 96 88 76 69 64 60 58 57 58 64 61 57 61 54 48
111 99 86 76 81 84 97 120 148 169 182 185 179 179 185 190 192 194 190 184 188 198 199 196 192 191 200 210 211 209 206 198 192 198 206 213 218 221 222 223 223 218 215 212 209 208 205 200 196 197 201 203 204 202 200 200 198 192 187 182 178 174 171 163 164 168 163 159 146 121 116 102 76 69 73 67 66 66 63 64 59 48 47 42 33
99 97 94 90 97 99 104 115 129 149 169 182 185 184 184 188 192 192 193 194 197 199 199 199 198 199 206 214 215 212 207 201 194 195 206 217 223 225 227 228 229 226 222 218 214 210 207 203 199 200 205 210 213 212 207 206 206 205 202 200 202 198 191 184 180 180 176 178 179 150 139 124 87 72 78 79 70 70 60 52 49 38 32 30 22
143 116 103 94 99 102 103 107 113 125 145 165 181 190 193 192 193 194 197 199 201 201 199 196 196 200 206 212 214 212 208 203 199 197 204 218 227 231 232 232 232 231 228 225 223 218 212 207 204 205 210 216 221 221 219 217 215 213 211 211 217 219 217 212 201 196 197 199 201 200 189 165 121 68 69 80 83 73 53 43 43 32 25 25 18
133 110 95 86 87 87 90 94 100 111 126 149 169 187 199 200 198 199 200 198 196 195 190 184 188 195 201 204 206 206 204 203 201 201 206 219 231 237 237 236 237 236 233 231 230 227 222 218 215 216 219 223 226 227 228 227 225 225 223 222 224 225 229 231 225 218 217 215 214 220 224 219 231 263 274 26 36 38 31 31 30 24 21 19 13
116 101 88 82 81 77 83 91 100 113 128 149 166 178 194 204 210 211 204 193 187 187 182 176 179 184 188 196 201 202 201 199 199 202 208 221 235 242 241 239 241 239 236 238 246 250 244 234 230 231 230 233 234 236 239 239 237 236 235 235 235 233 235 238 237 235 233 232 231 231 231 227 232 240 236 239 265 304 337 357 7 11 12 7 4
125 114 104 91 82 82 92 101 108 118 129 144 164 179 187 202 215 219 209 194 184 182 178 175 179 180 182 192 199 198 195 195 196 199 205 215 227 235 235 233 235 236 235 235 244 255 253 244 241 240 240 242 242 244 246 247 247 246 245 245 243 242 241 241 242 241 239 240 240 240 243 237 234 235 231 230 236 250 282 312 334 348 353 353 352
125 120 119 112 106 108 113 117 118 119 124 134 155 180 195 208 216 214 205 194 185 181 178 179 186 190 189 195 201 198 191 190 196 202 209 217 224 228 228 228 230 235 238 238 240 242 243 244 245 245 245 246 246 248 252 252 254 255 254 253 250 249 247 243 244 244 241 242 241 241 245 245 243 241 238 237 237 240 261 280 297 322 337 342 343
126 129 133 134 137 139 134 130 128 126 129 136 146 170 204 228 231 220 203 187 176 175 178 183 189 191 193 203 212 209 199 194 198 207 216 222 227 231 233 233 235 237 238 239 239 238 240 247 253 251 249 250 249 249 253 256 260 262 262 260 258 255 252 247 245 245 244 243 242 241 243 246 246 242 238 240 238 237 248 251 260 307 332 339 344
106 122 129 138 150 160 151 144 139 135 135 137 141 154 175 204 234 233 222 210 190 174 174 180 188 191 195 207 212 207 201 202 209 216 220 219 221 230 236 239 242 244 241 237 237 244 251 256 256 252 248 248 249 250 253 259 264 265 265 265 262 258 254 251 249 248 246 244 242 242 242 243 243 239 235 234 229 229 237 238 246 289 325 336 342
40 53 49 64 63 40 117 143 147 146 145 144 145 147 154 164 181 208 222 227 224 209 194 192 198 202 203 207 207 202 201 207 214 222 225 222 223 229 235 240 245 248 248 240 235 242 254 257 255 255 254 254 256 260 263 266 266 266 266 265 263 261 257 254 252 250 249 247 244 243 243 242 239 235 230 227 223 224 228 238 262 289 307 320 321
30 46 43 50 54 44 44 55 110 155 154 151 151 150 151 155 158 164 179 195 206 212 210 209 211 207 198 192 196 203 209 213 217 222 225 224 225 228 232 239 243 244 243 234 226 231 243 249 252 257 258 259 263 267 270 269 266 266 266 264 262 261 259 256 255 252 251 250 247 243 240 238 233 227 223 219 218 218 224 246 280 297 304 309 304
32 50 50 49 55 58 57 54 52 61 174 167 161 159 157 157 156 158 161 167 177 180 179 183 188 189 187 184 184 191 197 202 206 211 214 217 220 224 229 234 234 232 232 227 222 227 237 244 252 259 261 265 272 282 284 279 275 271 269 266 262 259 259 258 258 256 255 254 249 243 237 233 228 221 213 208 208 214 230 262 286 297 303 309 310
36 47 51 46 46 57 59 54 53 57 59 77 160 163 162 160 159 160 161 161 164 162 160 163 165 170 179 183 185 190 193 196 200 205 210 214 216 217 214 207 199 190 185 184 193 210 231 259 282 287 283 278 276 283 290 290 291 289 281 274 270 267 265 262 261 261 259 257 252 242 233 227 221 213 205 205 211 221 239 262 279 290 297 303 302
36 40 40 27 17 26 40 44 45 51 59 58 47 51 124 162 163 161 161 166 169 165 163 164 162 161 171 180 185 186 189 194 195 194 193 189 185 180 170 157 142 126 108 92 80 61 38 341 317 306 289 273 262 266 279 289 298 306 304 296 290 284 278 270 264 262 262 260 253 241 229 220 210 202 203 212 220 228 242 257 270 282 289 291 290
33 45 58 49 30 26 32 35 34 37 44 44 36 31 32 51 155 168 165 167 170 168 170 176 175 163 155 169 175 168 174 178 169 162 160 160 162 163 158 151 132 98 63 42 36 21 5 341 318 300 287 281 273 269 272 282 299 307 308 307 302 292 285 276 266 262 260 257 250 239 228 218 208 203 209 221 228 235 245 253 263 272 277 281 282
10 22 36 46 53 56 52 41 27 19 12 8 10 10 13 28 57 117 153 164 168 161 185 222 212 195 178 176 180 173 172 172 166 164 165 166 171 177 175 173 145 58 12 3 358 345 338 334 323 310 299 293 288 281 274 275 287 298 304 310 308 296 289 282 270 262 258 251 245 236 224 213 205 204 211 221 226 231 240 249 258 264 269 273 275
11 16 21 23 23 28 80 62 24 13 350 348 357 355 348 354 7 13 20 37 63 79 88 99 202 218 217 212 209 203 193 191 192 194 196 202 214 225 223 225 272 330 340 344 345 343 336 330 326 322 313 303 294 287 281 278 283 290 299 311 314 303 288 275 256 240 231 223 217 212 206 201 200 202 206 212 219 227 238 249 254 256 260 263 265
20 19 19 21 21 20 25 30 20 19 3 348 349 341 331 330 330 330 334 342 357 15 43 68 75 67 352 242 225 227 227 217 210 209 215 229 244 250 251 256 276 299 314 323 331 341 340 333 329 324 316 308 297 285 276 273 277 282 289 303 311 296 253 225 203 186 185 186 184 186 192 198 200 202 205 210 220 233 242 246 248 251 255 260 264
19 19 15 13 14 13 15 19 18 19 15 5 352 328 314 313 316 317 311 306 313 321 323 332 347 5 1 341 296 259 245 226 216 218 225 227 227 229 234 247 264 278 288 297 307 322 331 332 331 325 320 315 303 285 272 264 262 269 274 281 278 236 189 183 182 174 172 176 177 177 182 191 198 202 208 217 227 238 244 246 252 261 270 276 279
1 5 3 360 358 360 2 5 6 5 6 8 9 354 320 299 294 291 277 270 275 279 277 275 269 259 261 279 285 275 251 228 216 216 215 211 214 221 235 250 259 259 262 266 274 286 305 322 328 326 323 320 306 287 271 259 252 250 249 239 223 202 182 175 176 175 172 171 170 171 173 182 196 205 214 227 236 246 254 260 269 278 283 286 288
347 349 349 346 345 346 345 344 345 346 348 353 357 2 357 330 305 287 271 265 264 259 251 247 246 241 236 241 247 249 250 249 239 224 213 210 218 233 246 252 246 241 240 242 246 260 286 315 329 328 324 319 306 287 269 256 243 229 223 218 208 199 191 184 179 177 177 175 171 170 164 160 171 183 193 215 235 251 266 274 281 285 286 286 290
334 337 340 337 334 333 327 325 329 333 337 341 340 340 347 349 339 318 297 289 285 275 263 256 254 253 250 246 246 248 250 251 247 237 225 214 209 220 260 264 243 234 231 229 237 254 279 311 331 330 322 313 300 279 259 246 230 213 211 214 210 203 198 194 185 175 172 171 167 164 159 154 160 175 195 232 266 282 287 290 290 287 286 291 297
321 323 326 326 321 318 315 315 320 323 325 330 330 328 330 333 335 334 323 306 294 284 273 264 260 257 253 250 248 244 240 236 232 227 221 216 215 231 275 292 252 237 233 234 241 251 263 289 323 324 310 297 281 258 236 224 218 211 207 209 211 206 201 202 195 182 173 170 166 163 165 173 193 234 275 291 302 301 290 284 282 282 288 298 303
315 315 316 316 309 305 304 303 307 312 314 315 315 315 315 313 314 322 325 318 307 296 278 264 258 253 248 246 242 236 232 230 228 226 224 223 229 245 268 279 262 247 242 242 242 243 245 254 271 280 271 254 235 224 214 206 205 206 204 202 202 198 195 199 197 183 174 171 167 168 178 205 247 285 304 307 307 294 277 277 284 291 299 307 310
318 317 317 316 311 307 305 303 303 304 301 300 301 299 297 296 297 302 308 310 310 307 295 278 264 252 245 242 241 239 235 229 225 225 227 230 237 248 264 275 270 257 249 244 240 236 234 231 224 218 218 214 207 202 196 188 185 188 187 185 186 184 184 189 184 166 158 158 159 167 184 208 269 321 349 355 1 6 325 316 314 313 315 317 318
326 324 323 320 314 309 304 302 303 301 297 295 293 288 286 289 291 295 298 299 298 296 296 292 282 265 247 236 232 232 232 229 227 228 231 235 242 250 260 265 263 260 254 247 241 234 228 223 216 207 200 196 193 190 185 179 177 178 176 173 173 168 162 162 157 146 145 151 152 151 148 131 112 98 93 83 69 57 22 341 325 322 321 322 323
330 329 328 326 321 315 307 302 298 296 296 297 292 286 284 286 288 292 295 296 291 285 284 285 284 280 270 250 233 225 222 225 231 234 236 239 242 247 249 247 249 255 254 248 244 238 229 220 209 198 193 192 189 186 183 180 180 180 177 172 170 162 150 144 141 139 143 147 143 136 130 123 114 104 90 63 33 5 340 331 328 328 330 330 330
321 320 320 321 320 315 311 306 301 300 301 299 294 290 288 287 286 285 286 288 286 281 277 276 276 277 276 270 259 243 230 226 230 233 233 232 232 236 237 239 246 252 255 259 257 246 233 221 211 202 193 188 187 189 190 190 188 185 178 171 166 160 153 149 146 145 143 141 139 134 125 116 104 81 51 22 6 355 347 343 340 339 338 336 333
311 312 312 311 308 305 304 302 302 304 305 301 295 291 289 288 284 277 273 274 275 275 275 271 269 269 269 268 267 263 253 243 236 232 230 230 231 232 233 236 244 250 257 265 262 248 232 226 227 221 205 192 192 196 197 194 189 185 182 178 171 164 161 156 149 149 147 143 137 129 115 100 79 51 31 18 8 359 352 349 347 344 341 338 335
307 306 305 302 299 297 297 296 296 299 301 299 295 290 287 285 279 273 271 271 271 273 275 274 271 269 265 262 262 262 259 251 242 236 233 234 235 234 233 235 240 247 254 255 248 237 233 234 233 225 212 207 210 205 194 185 178 175 175 174 168 164 164 157 150 150 148 141 132 119 101 82 61 41 28 18 9 0 354 352 349 345 342 339 335
307 306 303 300 298 296 295 293 294 295 294 293 291 288 285 282 279 276 277 275 270 267 267 270 272 272 268 263 259 259 258 252 243 235 228 225 225 227 229 231 234 238 238 229 219 221 235 240 234 221 210 210 213 200 186 178 171 169 169 166 162 160 156 152 151 151 146 135 123 110 95 76 53 40 28 16 8 2 356 352 346 341 340 339 336